AE7VB Weather Reports


time (UTC)temp
C
wind
direction
speed
KPH
gust
KPH
rain 1hr
cm
rain 24hr
cm
rain mn
cm
humidity
%
barometer
mb
20260508231042 20 306 4.8 16.1 0.00 0.00 0.00 30 1020.1
20260508230041 19 285 3.2 16.1 0.00 0.00 0.00 32 1019.7
20260508225040 19 296 3.2 16.1 0.00 0.00 0.00 27 1019.7
20260508224039 20 287 3.2 14.5 0.00 0.00 0.00 29 1020.1
20260508223038 20 280 3.2 12.9 0.00 0.00 0.00 28 1020.2
20260508222038 20 282 3.2 12.9 0.00 0.00 0.00 29 1020.2
20260508221037 20 291 3.2 20.9 0.00 0.00 0.00 32 1020.2
20260508220036 19 297 3.2 20.9 0.00 0.00 0.00 29 1020.1
20260508215035 19 273 4.8 19.3 0.00 0.00 0.00 27 1020.1
20260508214003 20 248 3.2 19.3 0.00 0.00 0.00 25 1020.2
20260508213001 19 263 3.2 20.9 0.00 0.00 0.00 26 1020.1
20260508212000 18 257 3.2 17.7 0.00 0.00 0.00 28 1020.4
20260508210959 19 263 4.8 16.1 0.00 0.00 0.00 27 1020.5
20260508205927 19 261 3.2 14.5 0.00 0.00 0.00 26 1020.6
20260508204925 18 260 3.2 14.5 0.00 0.00 0.00 26 1020.6
20260508203924 19 264 4.8 16.1 0.00 0.00 0.00 27 1020.3
20260508202923 19 252 3.2 16.1 0.00 0.00 0.00 28 1020.3
20260508201922 19 259 3.2 19.3 0.00 0.00 0.00 27 1020.7
20260508200921 19 255 3.2 19.3 0.00 0.00 0.00 27 1020.7
20260508195920 19 271 3.2 17.7 0.00 0.00 0.00 30 1020.4
20260508194919 18 251 4.8 17.7 0.00 0.00 0.00 27 1020.6
20260508193918 18 267 3.2 16.1 0.00 0.00 0.00 28 1020.7
20260508192846 19 253 3.2 24.1 0.00 0.00 0.00 28 1020.8
20260508191711 18 257 4.8 24.1 0.00 0.00 0.00 29 1020.7
20260508190639 18 255 4.8 20.9 0.00 0.00 0.00 26 1020.7
20260508185637 17 271 3.2 16.1 0.00 0.00 0.00 30 1020.7
20260508184636 18 253 3.2 22.5 0.00 0.00 0.00 27 1020.7
20260508183634 17 256 3.2 22.5 0.00 0.00 0.00 24 1020.6
20260508182634 18 234 4.8 17.7 0.00 0.00 0.00 22 1020.6
20260508181633 18 245 3.2 17.7 0.00 0.00 0.00 26 1020.7
20260508180632 18 233 3.2 14.5 0.00 0.00 0.00 25 1020.6
20260508175631 17 236 3.2 17.7 0.00 0.00 0.00 24 1020.6
20260508174631 17 233 3.2 19.3 0.00 0.00 0.00 27 1020.6
20260508173630 17 225 4.8 19.3 0.00 0.00 0.00 27 1020.7
20260508172629 18 223 4.8 19.3 0.00 0.00 0.00 27 1020.9
20260508171557 18 241 1.6 17.7 0.00 0.00 0.00 28 1020.9
20260508170556 18 255 3.2 17.7 0.00 0.00 0.00 28 1020.9
20260508165555 17 247 4.8 20.9 0.00 0.00 0.00 28 1020.9
20260508164554 17 259 3.2 20.9 0.00 0.00 0.00 30 1020.8
20260508163553 17 247 3.2 19.3 0.00 0.00 0.00 31 1020.9
20260508162552 17 236 4.8 22.5 0.00 0.00 0.00 30 1020.9
20260508161551 16 263 3.2 22.5 0.00 0.00 0.00 32 1020.8
20260508160550 16 265 3.2 16.1 0.00 0.00 0.00 32 1020.7
20260508155549 16 268 1.6 16.1 0.00 0.00 0.00 33 1020.7
20260508154548 15 256 4.8 11.3 0.00 0.00 0.00 51 1020.8
20260508153547 15 321 1.6 6.4 0.00 0.00 0.00 48 1020.8
20260508152546 14 16 1.6 6.4 0.00 0.00 0.00 55 1020.9
20260508151545 14 355 1.6 6.4 0.00 0.00 0.00 56 1021.0
20260508150543 13 34 1.6 6.4 0.00 0.00 0.00 61 1021.2
20260508145543 13 62 1.6 4.8 0.00 0.00 0.00 62 1021.3
20260508144511 13 39 1.6 4.8 0.00 0.00 0.00 62 1021.2
20260508143509 12 58 1.6 4.8 0.00 0.00 0.00 64 1021.1
20260508142508 12 327 3.2 4.8 0.00 0.00 0.00 67 1020.7
20260508141507 11 272 1.6 6.4 0.00 0.00 0.00 65 1020.7
20260508140506 11 272 0.0 6.4 0.00 0.00 0.00 65 1020.6
20260508135434 10 261 3.2 4.8 0.00 0.00 0.00 70 1020.5
20260508134434 9 148 0.0 4.8 0.00 0.00 0.00 71 1020.4
20260508133432 8 149 1.6 4.8 0.00 0.00 0.00 71 1020.2
20260508132401 7 154 1.6 3.2 0.00 0.00 0.00 73 1019.7
20260508131400 7 153 1.6 3.2 0.00 0.00 0.00 74 1019.7
20260508130358 6 151 0.0 4.8 0.00 0.00 0.00 74 1019.6
20260508125357 6 152 0.0 4.8 0.00 0.00 0.00 74 1019.5
20260508124356 6 151 0.0 1.6 0.00 0.00 0.00 74 1019.5
20260508123355 6 151 1.6 1.6 0.00 0.00 0.00 75 1019.6
20260508122354 6 150 0.0 1.6 0.00 0.00 0.00 74 1019.7
20260508121352 6 151 0.0 3.2 0.00 0.00 0.00 73 1019.7
20260508120351 6 151 1.6 4.8 0.00 0.00 0.00 74 1019.8
20260508115350 7 151 1.6 8.0 0.00 0.00 0.00 75 1019.5
20260508114350 7 150 3.2 9.7 0.00 0.00 0.00 75 1020.0
20260508113349 7 149 3.2 8.0 0.00 0.00 0.00 75 1019.7
20260508112348 7 156 1.6 8.0 0.00 0.00 0.00 75 1019.8
20260508111316 7 151 3.2 8.0 0.00 0.00 0.00 75 1019.8
20260508110244 8 148 3.2 8.0 0.00 0.00 0.00 77 1019.9
20260508105243 8 155 3.2 8.0 0.00 0.00 0.00 79 1019.8
20260508104242 8 156 3.2 8.0 0.00 0.00 0.00 79 1019.9
20260508103240 8 155 1.6 8.0 0.00 0.00 0.00 79 1019.8
20260508102208 8 148 3.2 8.0 0.00 0.00 0.00 79 1019.9
20260508101207 8 154 3.2 8.0 0.00 0.00 0.00 79 1019.6
20260508100206 8 151 1.6 4.8 0.00 0.00 0.00 78 1019.5
20260508095205 8 154 0.0 0.0 0.00 0.00 0.00 78 1019.6
20260508094204 8 155 0.0 0.0 0.00 0.00 0.00 78 1020.0
20260508093132 8 154 0.0 0.0 0.00 0.00 0.00 77 1019.7
20260508092100 8 155 0.0 0.0 0.00 0.00 0.00 76 1019.7
20260508091059 9 153 0.0 0.0 0.00 0.00 0.00 76 1019.7
20260508090058 9 155 0.0 0.0 0.00 0.00 0.00 75 1019.8
20260508085057 9 154 0.0 0.0 0.00 0.00 0.00 75 1019.8
20260508084057 9 154 0.0 0.0 0.00 0.00 0.00 75 1019.8
20260508083056 9 154 0.0 0.0 0.00 0.00 0.00 75 1019.8
20260508082055 9 155 0.0 0.0 0.00 0.00 0.00 75 1019.8
20260508081054 10 154 0.0 0.0 0.00 0.00 0.00 75 1019.7
20260508075951 10 151 0.0 0.0 0.00 0.00 0.00 75 1019.8
20260508074950 10 151 0.0 0.0 0.00 0.00 0.00 75 1019.9
20260508073949 10 150 0.0 0.0 0.00 0.00 0.00 74 1019.8
20260508072948 10 151 0.0 0.0 0.00 0.00 0.00 74 1019.9
20260508071947 10 151 0.0 1.6 0.00 0.00 0.00 73 1019.9
20260508070914 10 151 0.0 1.6 0.00 0.00 0.00 73 1019.8
20260508065914 11 152 0.0 1.6 0.00 0.00 0.00 73 1019.4
20260508064913 11 151 0.0 8.0 0.00 0.00 0.00 73 1019.5
20260508063912 11 154 3.2 4.8 0.00 0.00 0.00 73 1019.4
20260508062911 11 156 3.2 3.2 0.00 0.00 0.00 73 1019.8
20260508061910 11 156 1.6 4.8 0.00 0.00 0.00 73 1019.5
20260508060909 11 160 3.2 6.4 0.00 0.00 0.00 73 1019.3
20260508055908 11 176 0.0 0.0 0.00 0.00 0.00 73 1019.3
20260508054907 11 179 0.0 0.0 0.00 0.00 0.00 73 1019.3
20260508053906 11 180 0.0 0.0 0.00 0.00 0.00 72 1019.6
20260508052834 11 169 0.0 1.6 0.00 0.00 0.00 71 1019.3
20260508051833 11 169 0.0 3.2 0.00 0.00 0.00 70 1019.5
20260508050831 12 169 0.0 6.4 0.00 0.00 0.00 71 1019.5
20260508045830 12 159 1.6 4.8 0.00 0.00 0.00 70 1019.1
20260508044829 12 158 0.0 4.8 0.00 0.00 0.00 70 1019.1
20260508043828 12 157 1.6 4.8 0.00 0.00 0.00 70 1019.2
20260508042827 12 157 1.6 4.8 0.00 0.00 0.00 69 1019.2
20260508041826 12 149 0.0 3.2 0.00 0.00 0.00 68 1019.1
20260508040826 13 149 1.6 4.8 0.00 0.00 0.00 67 1019.1
20260508035824 13 154 1.6 4.8 0.00 0.00 0.00 66 1019.2
20260508034823 13 156 1.6 4.8 0.00 0.00 0.00 65 1018.9
20260508033751 13 156 3.2 4.8 0.00 0.00 0.00 63 1018.9
20260508032749 15 148 0.0 3.2 0.00 0.00 0.00 61 1019.0
20260508031748 16 129 1.6 3.2 0.00 0.00 0.00 57 1018.9
20260508030747 16 24 0.0 4.8 0.00 0.00 0.00 54 1019.1
20260508025746 17 25 0.0 4.8 0.00 0.00 0.00 52 1019.2
20260508024713 17 24 3.2 6.4 0.00 0.00 0.00 50 1019.2
20260508023712 17 23 1.6 6.4 0.00 0.00 0.00 48 1019.2
20260508022639 18 19 1.6 6.4 0.00 0.00 0.00 47 1018.9
20260508021639 18 18 1.6 6.4 0.00 0.00 0.00 46 1018.9
20260508020637 18 21 1.6 4.8 0.00 0.00 0.00 46 1018.8
20260508015636 18 12 3.2 4.8 0.00 0.00 0.00 44 1018.8
20260508014635 18 25 1.6 6.4 0.00 0.00 0.00 42 1018.8
20260508013532 19 8 1.6 6.4 0.00 0.00 0.00 41 1018.8
20260508012531 19 11 3.2 12.9 0.00 0.00 0.00 41 1018.7
20260508011529 20 9 3.2 12.9 0.00 0.00 0.00 43 1018.6
20260508010529 20 8 3.2 6.4 0.00 0.00 0.00 44 1018.4
20260508005528 20 20 3.2 6.4 0.00 0.00 0.00 46 1018.3
20260508004527 20 346 1.6 6.4 0.00 0.00 0.00 46 1018.3
20260508003526 20 20 1.6 8.0 0.00 0.00 0.00 47 1018.3
20260508002525 21 7 3.2 8.0 0.00 0.00 0.00 44 1018.3
20260508001524 20 334 1.6 9.7 0.00 0.00 0.00 44 1017.9
20260508000523 20 19 3.2 11.3 0.00 0.00 0.00 45 1017.9
20260507235522 20 7 1.6 6.4 0.00 0.00 0.00 46 1017.9
20260507234521 21 3 1.6 6.4 0.00 0.00 0.00 41 1018.0
20260507233448 21 328 1.6 8.0 0.00 0.00 0.00 38 1018.1
20260507232448 21 352 1.6 16.1 0.00 0.00 0.00 38 1018.2